Find Starlink 37696

NORAD ID: 100274 Int'l Des: 2026-183 Owner: SPXS Country: US Constellation: starlink operational

当前视图

正在加载3D地球...

About Starlink 37696

Starlink 37696 (NORAD 100274) is a starlink constellation satellite launched Aug 11, 2026 by SPXS of US. with a mass of 575.00 kg.

即将过境

Passes for default location (London). Set your location on the main map for personalized predictions.

高度历史

Loading altitude history...

两行轨道根数

1 A0274U 26183C 26253.65462807 -.01023796 00000-0 -76357-2 0 9999
2 A0274 53.1588 305.4513 0002358 49.2649 310.8576 15.74489756 4761
Epoch: Sep 10, 2026 • Age: 238 hours

当前状态

高度 382.6 km
远地点 / 近地点 N/A
速度 7.69 km/s
星下点 31.95°N, 155.23°W
发射日期 Aug 11, 2026
运行时间 0.1 years
类型 internet

技术详情

分类 Payload
质量 575.00 kg
干质量 530.00 kg
长度 0.30 m
跨度 29.00 m
形状 ? Box + pan
制造商 SPXS
平台类型 Starlink V2MO
阶段状态 In Orbit
所有者/国家 SPXS/US

Most Searched